Date,TemperatureHighF,TemperatureAvgF,TemperatureLowF,DewpointHighF,DewpointAvgF,DewpointLowF,HumidityHigh,HumidityAvg,HumidityLow,PressureMaxIn,PressureMinIn,WindSpeedMaxMPH,WindSpeedAvgMPH,GustSpeedMaxMPH,PrecipitationSumIn
2013-1-1,23,20,17,15,13,9,80,74,67,30.08,29.95,17,3,37,0.00
2013-1-2,24,22,20,20,16,13,84,79,72,30.06,29.93,13,2,23,0.00
2013-1-3,28,26,22,23,20,18,87,81,74,30.01,29.90,18,4,31,0.00
2013-1-4,31,26,24,25,21,19,88,81,75,30.05,29.81,20,6,34,0.00
2013-1-5,37,30,19,30,23,14,86,77,63,30.14,29.80,12,3,20,0.04
2013-1-6,34,30,26,30,24,20,85,79,76,30.20,29.75,13,1,32,0.00
2013-1-7,40,32,25,29,23,18,78,70,56,30.20,29.85,23,8,36,0.08
2013-1-8,48,36,28,32,28,24,86,74,51,30.10,29.91,15,3,31,0.11
2013-1-9,38,35,27,31,27,21,80,71,65,30.37,29.75,22,7,34,0.00
2013-1-10,44,31,18,30,22,14,89,70,46,30.49,30.05,15,2,21,0.00
2013-1-11,44,40,35,40,36,24,89,86,60,30.05,29.62,16,6,25,0.30
2013-1-12,53,44,33,45,37,27,89,77,55,29.91,29.59,21,6,35,0.00
2013-1-13,33,30,26,29,27,20,89,87,81,29.92,29.78,11,1,20,0.04
2013-1-14,25,21,17,20,15,10,87,77,61,30.30,29.92,15,3,29,0.00
2013-1-15,27,22,11,17,13,5,80,71,60,30.31,30.00,15,4,29,0.00
2013-1-16,29,25,20,26,19,13,88,80,67,30.00,29.59,19,6,35,0.00
2013-1-17,22,14,12,15,6,0,83,71,57,30.26,29.92,21,6,28,0.00
2013-1-18,37,20,11,32,14,2,87,78,66,30.29,29.68,13,5,22,0.00
2013-1-19,37,33,26,34,29,23,89,87,80,29.77,29.38,27,4,44,0.13
2013-1-20,26,14,9,23,8,3,89,79,68,30.08,29.41,30,10,44,0.00
2013-1-21,10,6,0,6,2,-5,85,82,70,30.01,29.87,21,3,29,0.00
2013-1-22,5,2,-1,0,-2,-5,82,80,74,30.15,29.98,16,5,30,0.00
2013-1-23,12,9,4,8,4,0,85,83,78,30.16,29.96,7,0,34,0.00
2013-1-24,16,3,-11,7,-4,-16,85,75,52,30.57,30.16,0,0,0,0.00
2013-1-25,19,13,5,13,7,-1,84,79,69,30.40,29.90,15,4,20,0.01
2013-1-26,34,18,9,21,12,5,87,78,54,30.34,29.97,6,0,7,0.00
2013-1-27,30,25,17,24,19,12,88,79,67,30.35,29.99,16,4,28,0.00
2013-1-28,34,30,27,31,27,24,89,88,86,29.99,29.77,14,2,21,0.00
2013-1-29,50,38,29,46,35,25,89,88,87,29.94,29.40,15,4,22,0.38
2013-1-30,35,31,19,32,28,15,90,89,87,29.43,29.07,12,1,15,0.25
2013-1-31,19,15,14,15,11,8,88,84,74,29.79,29.18,0,0,0,0.00